{"data":{"norad_id":58370,"epoch":"2026-05-25T01:56:18.062304Z","epoch_age_seconds":67994,"freshness":"FRESH","line1":"1 58370U 23177V   26145.08076461  .00004468  00000+0  17175-3 0  9998","line2":"2 58370  43.0053 278.9034 0001759 267.4143  92.6507 15.27586362139920","mean_motion":15.27586362,"eccentricity":0.0001759,"inclination_deg":43.0053,"raan_deg":278.9034,"arg_perigee_deg":267.4143,"mean_anomaly_deg":92.6507,"bstar":0.00017175,"rev_number":13992,"period_min":94.266356117154,"perigee_km":481.82316670566,"apogee_km":484.23692527244,"semimajor_km":6861.1670459891,"source":"CELESTRAK","updated_at":"2026-05-25T13:38:18.610542Z"}}